Temperature
17 16 16 15 15 14 14 14 14 14 15 15 15 15 16 16 16 17 17 17 17 18 18 17 18 18 18 18 18 18 18 18 18 19 19 19 19 19 19 19 19 19 19
16 16 15 15 14 14 14 14 14 14 14 14 14 14 15 15 16 16 16 17 17 17 17 17 17 17 17 18 18 17 18 18 18 18 18 19 19 19 19 19 19 19 19
15 15 14 14 14 13 13 13 13 13 13 14 14 14 14 14 15 15 16 16 16 17 17 17 17 17 17 17 17 17 17 17 17 18 18 18 18 18 19 19 19 19 19
15 14 14 14 13 13 13 12 13 13 13 13 13 14 14 14 14 15 15 16 16 16 16 16 16 17 17 17 17 17 17 17 17 17 18 18 18 18 18 19 19 19 19
15 14 14 13 13 13 12 12 12 13 13 13 13 13 13 14 14 14 15 15 15 16 16 16 16 16 17 17 17 17 17 17 17 17 17 18 18 18 18 18 18 18 18
15 14 14 13 13 12 12 12 12 12 12 13 13 13 13 13 14 14 14 15 15 15 16 16 16 16 16 16 17 17 17 17 17 17 17 17 17 17 17 17 18 18 18
15 14 14 13 13 12 12 12 12 12 12 13 13 13 13 13 13 13 14 14 15 15 15 15 16 16 16 16 16 16 16 16 16 16 16 17 17 17 17 17 17 17 17
15 14 14 13 13 13 12 12 12 12 12 12 12 12 13 13 13 13 14 14 14 14 15 15 15 15 16 16 16 16 16 16 16 16 16 16 16 16 16 17 17 17 17
15 15 14 14 13 13 13 12 12 12 12 12 12 12 12 12 13 13 13 13 14 14 14 14 15 15 15 15 16 16 16 16 16 16 16 16 16 16 16 16 16 16 16
15 15 14 14 13 13 13 13 12 12 12 12 12 12 12 12 13 13 13 13 13 14 14 14 14 14 15 15 15 15 15 15 15 15 15 15 15 15 15 15 16 16 16
15 15 14 14 14 13 13 13 12 12 12 12 12 12 12 12 12 12 12 13 13 13 13 14 14 14 14 14 15 15 15 15 15 15 15 15 15 15 15 15 15 15 15
16 15 15 14 14 13 13 13 12 12 12 12 11 11 12 12 12 12 12 12 12 13 13 13 13 14 14 14 14 14 14 15 15 15 15 15 15 15 15 14 14 15 15
16 15 15 14 14 14 13 13 12 12 12 12 11 11 11 11 11 11 12 12 12 12 12 12 13 13 13 13 13 14 14 14 14 14 14 14 14 14 14 14 14 14 14
16 16 15 15 14 14 13 13 13 12 12 12 11 11 11 11 11 11 11 12 12 12 12 12 12 12 13 13 13 13 13 13 14 14 14 14 14 14 14 14 14 14 14
17 16 16 15 15 14 14 13 13 12 12 12 11 11 11 11 11 11 11 11 11 11 11 12 12 12 12 12 13 13 13 13 13 13 13 13 13 13 13 13 14 14 14
17 16 16 15 15 15 14 13 13 13 12 12 11 11 11 11 11 11 11 11 11 11 11 11 11 12 12 12 12 12 12 13 13 13 13 13 13 13 13 13 13 14 14
17 16 16 15 15 15 14 14 13 13 12 12 11 11 11 11 11 11 11 10 10 11 10 11 11 11 11 12 12 12 12 12 12 12 13 13 13 13 13 13 13 13 13
17 16 16 16 15 15 14 14 14 13 12 12 11 11 11 11 10 10 10 10 10 10 10 10 10 11 11 11 12 12 12 12 12 12 12 12 13 13 13 13 13 13 13
16 16 16 16 15 15 15 14 14 13 12 12 11 11 11 11 10 10 10 10 10 10 10 10 10 10 11 11 11 11 12 12 12 12 12 12 12 13 13 13 13 13 13
16 16 16 16 15 15 14 14 14 13 12 11 11 11 11 11 10 10 9 9 10 10 10 9 10 10 10 11 11 11 11 11 11 11 12 12 12 13 13 13 13 13 13
16 16 16 15 15 15 14 14 14 13 12 11 11 11 11 10 10 10 10 10 10 10 10 9 9 10 10 10 11 11 11 11 11 11 12 12 12 13 13 13 13 13 13
16 16 16 15 15 15 14 14 13 13 12 11 11 11 11 11 10 10 10 10 10 10 10 10 10 9 10 10 10 10 11 11 11 11 12 12 12 12 13 13 13 13 13
16 16 16 15 15 15 14 14 13 13 12 12 12 11 11 11 11 10 10 10 10 10 10 10 10 9 10 10 10 10 10 11 11 11 11 12 12 12 12 13 13 13 12
17 16 16 16 16 15 14 14 13 13 12 12 12 12 11 11 11 11 10 10 10 10 10 10 10 10 10 10 10 10 10 10 11 11 11 12 12 12 12 12 12 12 12
17 16 16 16 16 15 15 14 14 13 13 13 13 12 12 11 11 11 10 10 10 10 10 10 10 10 10 10 10 10 10 10 11 11 11 11 12 12 12 12 12 12 12
17 17 16 16 16 16 15 15 14 13 13 14 13 13 12 12 11 11 11 11 10 10 10 10 10 10 10 10 10 10 10 10 11 11 11 11 11 11 12 12 12 11 11
Wind_Speed
12 11 11 10 10 10 11 10 9 8 6 4 4 4 4 4 4 4 6 8 9 8 5 5 5 5 4 4 4 3 3 3 2 1 1 1 3 4 4 3 3 6 11
13 12 12 11 11 10 10 11 10 9 8 6 5 4 5 5 5 4 5 8 9 8 7 7 6 6 5 6 5 4 3 3 3 3 2 1 2 3 4 4 3 3 6
13 13 12 11 11 11 11 12 10 10 9 8 5 5 5 5 5 5 5 6 7 8 7 7 7 7 7 7 7 6 6 5 4 4 4 4 4 3 3 5 5 4 3
11 11 11 12 12 12 11 12 11 11 10 9 7 7 6 6 6 5 5 5 6 6 7 7 7 8 7 8 8 8 6 6 6 4 3 3 3 3 2 3 4 6 5
10 10 11 11 11 11 10 10 11 11 10 9 8 7 6 6 6 6 6 6 5 5 6 6 7 8 7 8 8 8 8 7 7 5 3 2 1 2 3 2 2 1 2
9 9 10 10 9 9 9 9 9 9 9 9 8 7 7 7 7 7 6 5 4 4 5 6 6 7 6 8 8 8 9 8 8 7 5 4 2 2 2 3 2 2 1
9 9 9 9 9 9 9 9 9 9 10 10 9 8 8 7 7 7 6 5 4 3 4 4 4 5 6 7 7 8 8 8 8 8 6 5 4 3 3 3 3 2 1
7 8 8 8 8 9 8 8 9 9 9 9 9 8 8 6 5 6 5 4 3 3 3 3 3 3 4 6 6 6 7 7 8 8 7 5 5 5 4 4 4 3 2
7 7 7 7 7 7 7 7 7 8 9 9 9 8 8 7 7 7 6 5 4 3 3 3 2 1 2 3 4 5 6 6 7 7 7 6 5 5 4 3 4 5 4
7 7 6 6 6 6 5 6 6 7 7 8 8 8 7 7 6 6 7 7 7 5 5 4 3 2 1 1 1 3 4 6 6 5 7 7 5 5 4 4 3 4 4
5 5 5 5 6 6 6 6 7 7 7 8 7 7 7 7 7 7 7 7 7 7 7 6 6 5 4 2 1 1 2 3 4 5 6 6 6 6 5 4 4 3 4
4 5 5 5 5 6 7 7 7 7 7 7 8 8 8 8 8 8 8 7 7 7 7 7 6 7 6 4 3 1 1 2 3 4 5 6 6 6 5 5 5 4 4
4 4 4 4 5 5 5 6 6 6 6 7 8 8 9 9 9 9 8 8 8 8 8 8 8 7 7 6 5 4 2 2 2 3 5 6 7 6 5 5 5 4 4
4 4 3 3 3 4 4 5 6 6 6 7 8 8 9 9 9 9 9 9 9 9 9 9 9 8 8 8 7 5 3 3 3 3 4 5 6 6 6 5 5 5 4
5 5 4 4 4 4 4 5 5 5 6 7 7 8 8 8 8 8 9 9 9 10 9 9 9 9 8 8 8 6 4 4 4 4 4 5 6 6 4 4 5 5 5
5 5 5 5 5 4 5 5 5 5 6 7 7 7 7 8 8 8 8 8 8 8 8 8 8 9 8 11 11 7 4 3 4 4 5 6 6 7 7 7 6 5 5
4 5 4 4 3 4 4 4 4 5 6 6 6 7 7 7 8 9 8 8 8 7 7 7 7 7 9 13 12 10 4 4 4 4 4 5 6 6 6 7 8 6 4
4 4 4 3 3 4 4 3 4 6 6 6 6 6 7 7 7 7 7 7 6 6 6 7 7 7 10 14 13 10 4 4 5 5 5 5 5 5 5 5 7 7 7
3 3 3 3 4 5 4 4 5 6 6 6 6 6 7 7 7 7 6 5 5 5 5 6 7 7 9 14 13 10 3 5 6 7 7 6 6 6 6 7 8 8 8
2 3 3 3 4 4 3 3 5 7 7 6 6 6 5 6 7 7 6 5 4 5 4 5 6 7 7 12 14 11 4 5 5 6 7 10 8 7 5 5 7 8 6
2 2 3 2 3 3 3 3 6 7 6 5 4 5 5 5 5 5 5 5 5 5 5 5 5 6 8 11 14 12 5 4 5 5 5 5 8 8 6 6 6 7 6
4 1 2 1 1 1 2 4 6 5 4 3 3 3 4 5 5 4 5 5 6 6 6 6 5 5 6 9 11 12 11 7 6 5 4 4 7 9 9 7 7 8 7
4 3 1 1 1 2 2 3 5 4 2 2 1 1 3 3 4 5 6 6 6 6 5 6 5 5 6 8 12 11 11 10 6 5 6 6 7 7 7 8 8 6 5
4 4 4 4 2 3 2 2 4 3 2 2 1 1 3 4 4 4 4 5 6 6 6 6 6 5 6 7 7 5 5 6 5 4 5 7 8 7 6 5 5 5 5
5 4 4 1 1 3 4 3 3 2 3 4 3 2 3 3 3 3 3 4 4 3 3 4 5 5 5 6 8 5 4 4 3 2 3 3 3 4 4 4 4 4 5
6 6 5 3 4 4 4 5 4 3 4 1 2 2 2 2 2 3 3 3 3 3 4 4 4 3 4 6 8 8 7 7 5 3 3 4 4 3 3 4 4 4 4
Wind_Direction
360 8 358 355 351 349 343 336 328 324 319 309 300 298 294 287 265 246 239 233 233 229 223 224 220 213 213 218 226 228 225 230 239 220 266 218 208 202 192 196 176 179 169
355 1 356 356 352 348 342 333 332 328 324 313 305 289 287 282 268 254 242 234 231 222 220 213 211 210 208 212 212 220 226 227 230 197 180 216 273 265 206 181 199 203 163
355 353 352 354 349 348 345 338 334 330 325 321 311 304 297 289 283 266 252 235 229 224 216 213 205 208 204 203 202 205 208 216 238 223 176 171 211 234 256 202 192 206 175
356 352 354 355 353 352 347 340 339 337 332 328 319 310 296 292 293 295 282 272 248 229 220 216 210 208 204 203 204 201 201 199 224 246 229 200 161 165 229 252 203 192 189
357 358 358 354 354 352 349 344 345 344 342 336 325 315 306 301 299 300 291 279 267 250 231 219 214 212 204 207 209 204 199 197 205 220 227 235 229 190 161 224 258 249 203
359 1 358 356 354 353 353 348 349 347 344 342 339 334 324 319 316 311 305 301 280 261 246 230 220 216 208 210 207 210 204 198 201 210 213 203 191 202 176 194 214 220 269
3 1 1 359 356 358 358 356 358 355 352 350 350 347 338 328 320 312 304 301 294 284 269 253 230 224 215 209 202 203 203 198 199 206 209 207 206 194 184 187 197 210 235
7 1 1 359 356 359 0 0 359 358 358 355 352 350 352 344 330 321 320 324 311 294 297 285 258 231 219 212 203 206 201 198 199 204 198 200 203 198 191 183 178 188 218
5 3 0 2 359 358 356 0 1 2 359 357 352 351 353 352 348 347 346 342 333 332 336 329 309 273 230 208 190 200 202 195 195 197 193 191 190 186 185 179 171 167 183
1 5 5 8 360 353 348 5 9 7 3 360 356 354 355 354 352 359 2 360 360 5 17 11 3 12 346 208 189 202 201 197 195 189 192 189 183 176 169 164 161 159 168
1 6 9 11 4 2 4 18 16 15 6 2 359 358 6 5 9 11 8 6 9 17 22 25 23 24 21 23 99 170 173 189 191 187 183 186 177 169 167 162 164 166 160
7 20 18 13 8 8 9 19 18 16 12 6 6 13 20 18 20 21 17 12 17 19 22 27 28 30 25 25 29 71 150 170 184 182 168 168 164 158 158 162 167 164 161
15 33 16 13 6 8 12 17 19 14 21 15 12 17 23 21 22 21 20 18 22 25 25 30 31 31 27 27 26 34 61 107 143 157 155 155 150 148 151 157 160 160 164
17 31 19 15 7 18 23 19 19 19 34 31 23 19 21 21 22 21 22 22 22 28 28 30 27 28 29 26 18 20 45 82 87 98 124 136 144 149 150 158 161 158 153
17 24 28 28 7 34 38 27 27 31 39 39 31 20 21 20 21 23 25 28 26 30 27 29 26 23 25 21 11 6 34 72 85 87 96 105 115 122 135 151 159 157 153
21 15 27 37 6 35 45 32 33 39 46 46 36 23 24 20 20 22 23 26 27 25 26 27 26 25 21 12 17 14 23 66 85 97 102 109 105 107 111 118 131 143 154
26 18 20 37 359 46 51 42 41 46 47 45 43 33 28 26 25 22 21 23 25 20 19 22 23 26 18 17 17 11 23 73 80 85 101 114 112 107 112 109 101 86 88
30 21 7 6 18 55 45 48 73 65 50 37 41 41 33 23 21 24 25 22 18 14 16 19 19 21 22 20 17 9 38 68 84 83 78 90 95 97 113 111 90 72 54
27 20 350 345 35 51 36 22 61 75 58 37 36 43 38 27 18 18 21 17 10 11 20 20 22 24 22 21 20 16 47 65 72 72 69 74 77 69 87 105 102 95 80
44 1 330 8 32 38 30 11 61 71 61 42 36 40 44 38 25 15 9 8 11 10 25 31 34 33 29 28 27 24 55 69 76 71 70 62 59 63 82 118 115 111 110
121 308 316 43 35 15 357 42 64 69 67 54 40 36 36 52 46 11 360 9 12 15 26 36 44 47 41 33 32 33 47 61 76 72 63 51 51 61 72 96 112 129 134
161 226 310 42 85 34 351 75 84 86 86 76 57 57 51 36 38 24 9 16 15 18 27 29 35 44 45 36 30 39 46 54 71 72 66 61 62 65 67 79 93 108 111
169 176 238 276 211 126 46 66 108 114 119 105 89 92 100 89 46 28 23 19 18 18 21 23 27 34 41 31 28 38 51 55 66 71 78 76 79 78 73 71 76 88 99
180 178 215 232 197 124 129 112 124 155 178 176 190 137 83 76 75 46 32 39 25 17 15 17 17 22 38 25 11 13 44 59 64 72 74 67 67 76 80 76 73 76 96
179 190 223 224 202 178 168 148 154 203 221 203 181 144 115 99 94 94 50 52 74 60 28 9 11 20 22 7 4 15 25 31 37 40 68 70 68 62 63 76 82 83 89
189 191 191 201 242 211 170 157 163 230 265 237 119 113 136 144 151 149 135 61 84 103 74 52 40 65 44 7 14 23 29 27 15 44 78 77 76 80 80 85 85 82 88
Height
1552 1549 1546 1543 1540 1537 1534 1531 1528 1526 1524 1522 1520 1519 1518 1517 1517 1517 1517 1518 1520 1521 1523 1525 1527 1530 1532 1535 1537 1541 1543 1546 1549 1551 1553 1555 1557 1559 1560 1562 1563 1564 1565
1551 1548 1545 1542 1539 1535 1532 1528 1526 1523 1521 1519 1517 1515 1514 1513 1513 1513 1513 1513 1515 1516 1517 1519 1521 1524 1526 1530 1532 1536 1539 1542 1545 1548 1550 1552 1555 1555 1557 1559 1560 1562 1563
1551 1548 1545 1541 1537 1534 1530 1526 1523 1520 1518 1516 1514 1512 1511 1510 1509 1509 1509 1509 1510 1511 1512 1514 1516 1518 1521 1524 1527 1530 1534 1537 1541 1544 1546 1548 1549 1552 1554 1555 1557 1559 1561
1551 1547 1544 1540 1536 1532 1528 1524 1521 1517 1515 1512 1510 1509 1507 1506 1506 1505 1504 1504 1505 1506 1507 1509 1510 1513 1515 1518 1521 1525 1528 1531 1535 1539 1541 1544 1546 1548 1549 1552 1553 1555 1557
1550 1547 1544 1540 1536 1531 1527 1523 1519 1515 1512 1510 1508 1506 1504 1503 1502 1501 1500 1500 1500 1501 1502 1503 1505 1508 1510 1512 1515 1519 1522 1525 1529 1532 1536 1539 1541 1543 1545 1547 1550 1552 1553
1550 1547 1543 1539 1535 1531 1526 1522 1518 1514 1511 1508 1505 1503 1501 1500 1498 1497 1496 1496 1496 1497 1498 1499 1500 1502 1504 1507 1510 1513 1516 1520 1523 1527 1530 1533 1536 1539 1542 1544 1546 1548 1550
1549 1546 1543 1539 1534 1530 1526 1522 1518 1514 1510 1507 1504 1502 1499 1498 1496 1494 1493 1492 1492 1493 1493 1494 1495 1497 1499 1502 1504 1507 1510 1514 1517 1520 1523 1527 1531 1534 1538 1540 1542 1545 1547
1549 1546 1542 1539 1535 1531 1526 1522 1518 1514 1511 1507 1504 1501 1498 1496 1494 1493 1492 1490 1490 1490 1490 1491 1492 1493 1495 1497 1499 1502 1505 1508 1511 1515 1518 1521 1525 1529 1532 1535 1538 1540 1543
1549 1546 1542 1539 1535 1531 1527 1524 1519 1516 1512 1508 1504 1501 1498 1496 1494 1492 1491 1489 1488 1488 1488 1488 1489 1490 1491 1493 1495 1497 1499 1503 1506 1509 1512 1515 1518 1522 1526 1530 1533 1536 1538
1548 1545 1542 1539 1536 1532 1529 1525 1521 1517 1513 1509 1505 1502 1499 1496 1494 1492 1491 1489 1488 1487 1487 1487 1487 1487 1489 1490 1491 1494 1496 1498 1501 1504 1507 1510 1513 1517 1520 1524 1528 1531 1534
1547 1545 1542 1540 1536 1533 1530 1526 1523 1519 1515 1511 1508 1504 1501 1498 1496 1494 1492 1491 1489 1488 1486 1486 1486 1486 1487 1488 1489 1491 1493 1495 1497 1500 1503 1506 1509 1512 1515 1519 1522 1526 1529
1547 1545 1543 1540 1537 1534 1531 1528 1524 1521 1517 1513 1510 1507 1504 1501 1498 1496 1494 1492 1491 1489 1488 1487 1487 1486 1487 1487 1488 1489 1490 1492 1494 1497 1499 1502 1505 1508 1511 1515 1518 1522 1525
1546 1544 1542 1540 1537 1535 1532 1529 1526 1523 1519 1516 1513 1510 1507 1503 1501 1499 1497 1495 1493 1491 1490 1489 1488 1487 1487 1487 1488 1489 1490 1491 1493 1495 1497 1499 1502 1505 1508 1512 1515 1518 1521
1546 1544 1542 1540 1538 1536 1533 1531 1528 1525 1521 1518 1515 1512 1509 1506 1504 1501 1499 1497 1495 1493 1491 1490 1489 1488 1488 1488 1488 1489 1489 1490 1491 1493 1496 1498 1501 1503 1506 1510 1513 1515 1519
1545 1544 1542 1540 1538 1536 1534 1532 1529 1526 1523 1520 1517 1514 1512 1509 1507 1504 1501 1499 1497 1495 1493 1492 1490 1490 1489 1489 1489 1489 1490 1490 1491 1493 1495 1497 1500 1502 1505 1508 1511 1514 1517
1545 1544 1542 1540 1539 1537 1535 1533 1530 1528 1525 1522 1519 1517 1514 1511 1509 1506 1503 1501 1499 1497 1495 1493 1492 1491 1490 1489 1489 1490 1490 1491 1492 1493 1495 1497 1499 1502 1505 1508 1510 1513 1516
1544 1543 1542 1540 1539 1537 1535 1533 1531 1529 1527 1524 1521 1519 1516 1513 1511 1508 1506 1503 1501 1499 1497 1495 1494 1492 1491 1491 1490 1491 1491 1492 1493 1494 1496 1498 1500 1503 1505 1508 1511 1513 1516
1543 1543 1542 1540 1539 1537 1536 1534 1532 1530 1528 1526 1523 1521 1518 1515 1513 1510 1508 1505 1503 1501 1499 1497 1496 1494 1493 1492 1492 1492 1492 1493 1494 1495 1497 1499 1502 1504 1507 1509 1512 1514 1517
1543 1542 1541 1540 1539 1537 1536 1535 1533 1531 1529 1527 1525 1522 1520 1517 1515 1512 1510 1508 1506 1504 1502 1500 1498 1496 1495 1494 1493 1494 1494 1495 1496 1497 1499 1501 1503 1506 1508 1511 1513 1516 1518
1542 1541 1541 1540 1539 1538 1536 1535 1534 1531 1530 1528 1526 1524 1522 1519 1517 1514 1512 1510 1508 1506 1505 1502 1500 1499 1497 1496 1495 1495 1496 1496 1497 1499 1501 1503 1505 1508 1511 1513 1515 1518 1521
1541 1541 1540 1539 1538 1537 1537 1535 1534 1532 1531 1529 1527 1526 1523 1521 1519 1516 1514 1513 1511 1509 1507 1505 1504 1501 1500 1498 1497 1497 1497 1498 1499 1501 1502 1505 1508 1510 1513 1515 1517 1520 1523
1540 1540 1539 1539 1538 1537 1536 1535 1534 1533 1531 1530 1529 1527 1525 1523 1521 1519 1516 1515 1513 1511 1510 1508 1506 1505 1503 1501 1500 1500 1500 1501 1501 1503 1504 1507 1510 1512 1515 1517 1520 1522 1525
1539 1539 1538 1538 1538 1537 1536 1535 1534 1533 1532 1531 1530 1528 1526 1525 1522 1520 1518 1516 1514 1513 1512 1510 1509 1507 1506 1505 1504 1503 1503 1503 1504 1506 1507 1510 1512 1515 1517 1519 1521 1524 1526
1537 1537 1537 1537 1537 1536 1535 1535 1533 1533 1532 1531 1530 1529 1528 1526 1524 1522 1520 1518 1516 1515 1513 1512 1511 1510 1509 1508 1507 1506 1506 1507 1508 1509 1511 1513 1515 1517 1519 1521 1523 1525 1528
1535 1535 1536 1536 1536 1535 1534 1534 1533 1532 1532 1531 1530 1530 1528 1527 1525 1524 1522 1520 1519 1517 1516 1514 1513 1512 1511 1510 1510 1510 1510 1510 1511 1513 1514 1516 1518 1519 1521 1523 1525 1527 1529
1532 1533 1534 1534 1534 1534 1533 1533 1532 1532 1532 1532 1531 1530 1529 1527 1526 1525 1523 1522 1521 1519 1518 1517 1515 1514 1514 1513 1513 1513 1513 1514 1515 1516 1517 1519 1520 1522 1524 1525 1527 1528 1530